User: anonymous   Login
Location: Unspecified
(0.0000°N, 0.0000°E)
Time: 22:16:19
(UTC+00:00)
Language:

STARLINK-31251 - Orbit

View from above orbital plane
View from above orbital plane
View from above satellite
View from above satellite

Ground track
Ground track

The orbit is defined by the following mean orbital elements,

1 58836U          26145.54763940 +.00000000 +00000-0 +83416-5 0 00006
2 58836  53.1602 207.3113 0000951  96.0728 264.0381 15.30189775    03
Epoch (UTC): 25 May 2026 13:08:36
Eccentricity: 0.0000951
inclination: 53.1602°
perigee height: 475 km
apogee height: 476 km
right ascension of ascending node: 207.3113°
argument of perigee: 96.0728°
revolutions per day: 15.30189775
mean anomaly at epoch: 264.0381°

The dashed part of the orbit path shows where the satellite is in the earth's shadow,  

DLR